EIN39C EIDW-EDDH

Flight info

Callsign EIN39C
Flight time 1h 34m
Altitude 37000
Route ENDEQ3J ENDEQ Q36 ALAVA Z195 MALUD UL975 WAL M16 DOLAS L603 LAMSO DCT GASTU DCT OSTOR/N0367F230 T904 RIBSO RIBSO3P
Aircraft A320/M-SDE3FGHIRWY/LB1

Departure

Time 2026-04-26 15:53
Airport Dublin Airport (EIDW)

Arrival

Time 2026-04-26 17:27
Airport Hamburg Helmut Schmidt Airport (EDDH)
Time Latitude Longitude Altitude Speed Heading
2026-04-26 15:19 53.42652 -6.24687 227 ft 0 kts 143°
2026-04-26 15:44 53.42684 -6.24711 227 ft 4 kts 175°
2026-04-26 15:44 53.42710 -6.24708 225 ft 4 kts 200°
2026-04-26 15:45 53.42734 -6.24678 228 ft 0 kts 245°
2026-04-26 15:48 53.42716 -6.24745 226 ft 11 kts 245°
2026-04-26 15:48 53.42676 -6.24841 225 ft 9 kts 233°
2026-04-26 15:48 53.42674 -6.24929 225 ft 7 kts 311°
2026-04-26 15:49 53.42725 -6.24988 225 ft 15 kts 327°
2026-04-26 15:49 53.42798 -6.25118 225 ft 15 kts 297°
2026-04-26 15:49 53.42881 -6.25197 226 ft 16 kts 336°
2026-04-26 15:49 53.42984 -6.25273 225 ft 15 kts 336°
2026-04-26 15:50 53.43109 -6.25363 225 ft 32 kts 337°
2026-04-26 15:50 53.43226 -6.25222 225 ft 24 kts 84°
2026-04-26 15:50 53.43214 -6.24902 226 ft 37 kts 96°
2026-04-26 15:50 53.43193 -6.24458 225 ft 17 kts 77°
2026-04-26 15:51 53.43266 -6.24407 225 ft 16 kts
2026-04-26 15:51 53.43347 -6.24318 225 ft 7 kts 101°
2026-04-26 15:51 53.43327 -6.24163 224 ft 25 kts 95°
2026-04-26 15:51 53.43348 -6.23861 224 ft 16 kts 34°
2026-04-26 15:52 53.43442 -6.23844 219 ft 15 kts 352°
2026-04-26 15:52 53.43493 -6.23972 216 ft 13 kts 275°
2026-04-26 15:52 53.43509 -6.24267 220 ft 56 kts 274°
2026-04-26 15:52 53.43544 -6.24897 225 ft 102 kts 276°
2026-04-26 15:53 53.43661 -6.27026 270 ft 166 kts 275°
2026-04-26 15:53 53.43771 -6.28995 866 ft 170 kts 277°
2026-04-26 15:53 53.44257 -6.30784 1511 ft 177 kts 313°
2026-04-26 15:53 53.45151 -6.32362 1816 ft 200 kts 310°
2026-04-26 15:54 53.46105 -6.34154 2458 ft 209 kts 321°
2026-04-26 15:54 53.47433 -6.35145 3250 ft 214 kts 352°
2026-04-26 15:54 53.48939 -6.35136 4073 ft 217 kts
2026-04-26 15:54 53.50462 -6.35023 4939 ft 222 kts
2026-04-26 15:55 53.51905 -6.34065 5684 ft 231 kts 42°
2026-04-26 15:55 53.52740 -6.31721 6146 ft 252 kts 77°
2026-04-26 15:55 53.52935 -6.28663 6582 ft 274 kts 90°
2026-04-26 15:55 53.52863 -6.25400 7305 ft 282 kts 95°
2026-04-26 15:56 53.52708 -6.22086 8148 ft 286 kts 95°
2026-04-26 15:56 53.52552 -6.18723 9002 ft 290 kts 96°
2026-04-26 15:56 53.52422 -6.15308 9858 ft 295 kts 95°
2026-04-26 15:56 53.52316 -6.11785 10394 ft 312 kts 94°
2026-04-26 15:57 53.52211 -6.08053 10659 ft 334 kts 97°
2026-04-26 15:57 53.51747 -6.04149 11180 ft 345 kts 105°
2026-04-26 15:57 53.51175 -6.00190 11914 ft 349 kts 104°
2026-04-26 15:57 53.50795 -5.97536 12418 ft 352 kts 104°
2026-04-26 15:58 53.50024 -5.92138 13437 ft 357 kts 104°
2026-04-26 15:58 53.49444 -5.88098 14148 ft 361 kts 104°
2026-04-26 15:58 53.48849 -5.83967 14792 ft 365 kts 104°
2026-04-26 15:58 53.48278 -5.79789 15436 ft 369 kts 102°
2026-04-26 15:59 53.47739 -5.75531 16076 ft 373 kts 101°
2026-04-26 15:59 53.47217 -5.71247 16710 ft 377 kts 101°
2026-04-26 15:59 53.46698 -5.66967 17333 ft 380 kts 101°
2026-04-26 15:59 53.46162 -5.62592 17947 ft 384 kts 101°
2026-04-26 16:00 53.45611 -5.58171 18558 ft 389 kts 101°
2026-04-26 16:00 53.45042 -5.53693 19092 ft 392 kts 101°
2026-04-26 16:00 53.44569 -5.49170 19642 ft 395 kts 94°
2026-04-26 16:00 53.44444 -5.44625 20298 ft 394 kts 91°
2026-04-26 16:01 53.44337 -5.40001 20892 ft 396 kts 92°
2026-04-26 16:01 53.44222 -5.35369 21455 ft 400 kts 92°
2026-04-26 16:01 53.44101 -5.30672 22004 ft 403 kts 93°
2026-04-26 16:01 53.43977 -5.25952 22552 ft 406 kts 93°
2026-04-26 16:02 53.43851 -5.21245 23084 ft 409 kts 93°
2026-04-26 16:02 53.43724 -5.16440 23617 ft 413 kts 94°
2026-04-26 16:02 53.43590 -5.11670 24026 ft 417 kts 94°
2026-04-26 16:02 53.43491 -5.08354 24298 ft 420 kts 94°
2026-04-26 16:03 53.43286 -5.01837 24848 ft 424 kts 95°
2026-04-26 16:03 53.43127 -4.96883 25248 ft 426 kts 95°
2026-04-26 16:03 53.42962 -4.91890 25644 ft 429 kts 95°
2026-04-26 16:03 53.42792 -4.86880 26031 ft 432 kts 95°
2026-04-26 16:04 53.42621 -4.81823 26411 ft 435 kts 95°
2026-04-26 16:04 53.42453 -4.76818 26779 ft 437 kts 95°
2026-04-26 16:04 53.42280 -4.71713 27162 ft 440 kts 95°
2026-04-26 16:04 53.42105 -4.66571 27512 ft 442 kts 96°
2026-04-26 16:05 53.41925 -4.61385 27857 ft 445 kts 96°
2026-04-26 16:05 53.41743 -4.56175 28188 ft 448 kts 96°
2026-04-26 16:05 53.41557 -4.50935 28534 ft 451 kts 96°
2026-04-26 16:05 53.41372 -4.45725 28868 ft 454 kts 96°
2026-04-26 16:06 53.41180 -4.40431 29200 ft 456 kts 96°
2026-04-26 16:06 53.40985 -4.35087 29530 ft 458 kts 96°
2026-04-26 16:06 53.40790 -4.29813 29846 ft 461 kts 96°
2026-04-26 16:06 53.40585 -4.24412 30154 ft 463 kts 96°
2026-04-26 16:07 53.40379 -4.19006 30444 ft 465 kts 96°
2026-04-26 16:07 53.40169 -4.13574 30691 ft 467 kts 96°
2026-04-26 16:07 53.39956 -4.08126 30907 ft 470 kts 96°
2026-04-26 16:07 53.39738 -4.02643 31114 ft 473 kts 96°
2026-04-26 16:08 53.39587 -3.97170 31332 ft 476 kts 91°
2026-04-26 16:08 53.39705 -3.93414 31479 ft 479 kts 86°
2026-04-26 16:08 53.40089 -3.86041 31786 ft 480 kts 87°
2026-04-26 16:08 53.40378 -3.80453 32104 ft 480 kts 87°
2026-04-26 16:09 53.40661 -3.74865 32408 ft 480 kts 87°
2026-04-26 16:09 53.40934 -3.69346 32710 ft 480 kts 87°
2026-04-26 16:09 53.41205 -3.63756 33014 ft 479 kts 88°
2026-04-26 16:09 53.41233 -3.58171 33304 ft 477 kts 96°
2026-04-26 16:10 53.40980 -3.52624 33573 ft 477 kts 97°
2026-04-26 16:10 53.40725 -3.47070 33859 ft 477 kts 97°
2026-04-26 16:10 53.40476 -3.41519 34160 ft 477 kts 97°
2026-04-26 16:10 53.40235 -3.36050 34430 ft 477 kts 97°
2026-04-26 16:11 53.39988 -3.30497 34688 ft 477 kts 97°
2026-04-26 16:11 53.39738 -3.24947 34947 ft 477 kts 97°
2026-04-26 16:11 53.39482 -3.19417 35198 ft 477 kts 97°
2026-04-26 16:11 53.39220 -3.13869 35445 ft 476 kts 97°
2026-04-26 16:12 53.38967 -3.08338 35676 ft 476 kts 96°
2026-04-26 16:12 53.38747 -3.02789 35892 ft 477 kts 95°
2026-04-26 16:12 53.38359 -2.91680 36330 ft 477 kts 95°
2026-04-26 16:13 53.38165 -2.86136 36552 ft 477 kts 95°
2026-04-26 16:13 53.37960 -2.80576 36765 ft 476 kts 95°
2026-04-26 16:13 53.37749 -2.75099 36974 ft 476 kts 95°
2026-04-26 16:13 53.37530 -2.69563 37183 ft 476 kts 95°
2026-04-26 16:14 53.37078 -2.58498 37275 ft 474 kts 95°
2026-04-26 16:15 53.36382 -2.42043 37274 ft 474 kts 95°
2026-04-26 16:15 53.35908 -2.31012 37275 ft 473 kts 95°
2026-04-26 16:16 53.34533 -2.14652 37275 ft 472 kts 101°
2026-04-26 16:16 53.33417 -2.03851 37277 ft 472 kts 101°
2026-04-26 16:17 53.32300 -1.93061 37274 ft 473 kts 101°
2026-04-26 16:17 53.31170 -1.82206 37276 ft 473 kts 101°
2026-04-26 16:18 53.29433 -1.65955 37278 ft 473 kts 101°
2026-04-26 16:19 53.27688 -1.49710 37271 ft 473 kts 101°
2026-04-26 16:20 53.25929 -1.33475 37271 ft 473 kts 101°
2026-04-26 16:20 53.24144 -1.17350 37254 ft 473 kts 102°
2026-04-26 16:21 53.23133 -1.08284 37267 ft 473 kts 102°
2026-04-26 16:21 53.21930 -0.97560 37269 ft 472 kts 101°
2026-04-26 16:22 53.20705 -0.86776 37269 ft 472 kts 102°
2026-04-26 16:22 53.19465 -0.75995 37278 ft 473 kts 102°
2026-04-26 16:23 53.18228 -0.65201 37281 ft 473 kts 102°
2026-04-26 16:23 53.16994 -0.54487 37283 ft 473 kts 102°
2026-04-26 16:24 53.15736 -0.43717 37282 ft 473 kts 102°
2026-04-26 16:24 53.14454 -0.32974 37310 ft 473 kts 102°
2026-04-26 16:25 53.13167 -0.22209 37309 ft 473 kts 102°
2026-04-26 16:25 53.11891 -0.11516 37308 ft 473 kts 102°
2026-04-26 16:26 53.10592 -0.00766 37313 ft 473 kts 102°
2026-04-26 16:26 53.09283 0.09960 37307 ft 472 kts 102°
2026-04-26 16:27 53.07970 0.20625 37308 ft 472 kts 102°
2026-04-26 16:27 53.06640 0.31324 37308 ft 472 kts 102°
2026-04-26 16:28 53.05310 0.41959 37305 ft 472 kts 102°
2026-04-26 16:28 53.03967 0.52647 37307 ft 472 kts 102°
2026-04-26 16:29 53.02612 0.63323 37319 ft 472 kts 102°
2026-04-26 16:29 53.01247 0.73989 37310 ft 471 kts 102°
2026-04-26 16:30 52.99880 0.84584 37303 ft 471 kts 102°
2026-04-26 16:30 52.98495 0.95235 37308 ft 471 kts 102°
2026-04-26 16:31 52.97147 1.05798 37323 ft 470 kts 101°
2026-04-26 16:31 52.95923 1.16506 37323 ft 470 kts 100°
2026-04-26 16:32 52.94938 1.25362 37329 ft 470 kts 100°
2026-04-26 16:32 52.93515 1.37735 37328 ft 470 kts 101°
2026-04-26 16:33 52.92254 1.48379 37335 ft 469 kts 101°
2026-04-26 16:33 52.90983 1.58985 37341 ft 470 kts 101°
2026-04-26 16:34 52.89702 1.69629 37333 ft 470 kts 101°
2026-04-26 16:34 52.88424 1.80173 37332 ft 470 kts 101°
2026-04-26 16:35 52.87347 1.89006 37338 ft 470 kts 101°
2026-04-26 16:35 52.86550 1.95540 37340 ft 470 kts 101°
2026-04-26 16:36 52.85248 2.06090 37340 ft 470 kts 101°
2026-04-26 16:36 52.83929 2.16704 37336 ft 470 kts 101°
2026-04-26 16:37 52.82603 2.27316 37339 ft 471 kts 101°
2026-04-26 16:37 52.81272 2.37850 37340 ft 471 kts 101°
2026-04-26 16:38 52.79924 2.48442 37340 ft 471 kts 101°
2026-04-26 16:38 52.78563 2.59053 37341 ft 471 kts 101°
2026-04-26 16:39 52.77203 2.69597 37342 ft 471 kts 101°
2026-04-26 16:39 52.75816 2.80226 37342 ft 471 kts 101°
2026-04-26 16:40 52.74446 2.90752 37341 ft 471 kts 99°
2026-04-26 16:40 52.74216 3.01495 37356 ft 467 kts 80°
2026-04-26 16:41 52.75823 3.11787 37351 ft 462 kts 68°
2026-04-26 16:41 52.77878 3.21879 37347 ft 463 kts 69°
2026-04-26 16:42 52.79902 3.31919 37345 ft 463 kts 69°
2026-04-26 16:42 52.81938 3.42043 37346 ft 463 kts 69°
2026-04-26 16:43 52.83956 3.52180 37347 ft 463 kts 69°
2026-04-26 16:43 52.85960 3.62277 37354 ft 463 kts 69°
2026-04-26 16:44 52.87974 3.72429 37349 ft 463 kts 69°
2026-04-26 16:44 52.89973 3.82577 37350 ft 463 kts 69°
2026-04-26 16:45 52.91965 3.92728 37345 ft 463 kts 69°
2026-04-26 16:45 52.93935 4.02851 37345 ft 463 kts 69°
2026-04-26 16:46 52.95906 4.13046 37362 ft 463 kts 69°
2026-04-26 16:46 52.97868 4.23224 37354 ft 463 kts 69°
2026-04-26 16:47 52.99811 4.33356 37356 ft 463 kts 69°
2026-04-26 16:47 53.01756 4.43573 37351 ft 463 kts 69°
2026-04-26 16:48 53.03693 4.53788 37347 ft 463 kts 69°
2026-04-26 16:48 53.05627 4.64036 37347 ft 464 kts 69°
2026-04-26 16:49 53.07540 4.74225 37359 ft 464 kts 69°
2026-04-26 16:49 53.09453 4.84484 37360 ft 464 kts 69°
2026-04-26 16:50 53.11356 4.94747 37365 ft 464 kts 70°
2026-04-26 16:50 53.13257 5.05025 37365 ft 464 kts 70°
2026-04-26 16:51 53.15144 5.15332 37377 ft 464 kts 70°
2026-04-26 16:51 53.17011 5.25576 37369 ft 464 kts 70°
2026-04-26 16:52 53.18559 5.34151 37363 ft 464 kts 70°
2026-04-26 16:52 53.20739 5.46222 37357 ft 464 kts 70°
2026-04-26 16:53 53.22591 5.56484 37354 ft 464 kts 70°
2026-04-26 16:53 53.24439 5.66834 37387 ft 464 kts 70°
2026-04-26 16:54 53.26270 5.77170 37376 ft 463 kts 70°
2026-04-26 16:54 53.28080 5.87460 37379 ft 463 kts 70°
2026-04-26 16:55 53.29891 5.97800 37371 ft 463 kts 70°
2026-04-26 16:55 53.31682 6.08077 37364 ft 463 kts 70°
2026-04-26 16:56 53.34374 6.23606 37360 ft 462 kts 70°
2026-04-26 16:57 53.36146 6.33937 37354 ft 462 kts 70°
2026-04-26 16:57 53.38786 6.49455 37359 ft 461 kts 70°
2026-04-26 16:58 53.39949 6.56322 37350 ft 461 kts 70°
2026-04-26 16:59 53.43064 6.75338 37370 ft 461 kts 71°
2026-04-26 16:59 53.44685 6.85745 36762 ft 460 kts 71°
2026-04-26 17:00 53.46294 6.96089 35266 ft 463 kts 71°
2026-04-26 17:00 53.47919 7.06548 34034 ft 460 kts 71°
2026-04-26 17:00 53.48718 7.11717 33441 ft 456 kts 71°
2026-04-26 17:01 53.49512 7.16867 32888 ft 452 kts 71°
2026-04-26 17:01 53.50300 7.21982 32336 ft 449 kts 72°
2026-04-26 17:01 53.51076 7.27035 31836 ft 445 kts 72°
2026-04-26 17:01 53.51831 7.31990 31376 ft 441 kts 72°
2026-04-26 17:02 53.52585 7.36965 30892 ft 438 kts 73°
2026-04-26 17:02 53.53334 7.41913 30412 ft 434 kts 73°
2026-04-26 17:02 53.54078 7.46821 29841 ft 431 kts 73°
2026-04-26 17:02 53.54815 7.51688 29326 ft 427 kts 73°
2026-04-26 17:03 53.55542 7.56505 28802 ft 424 kts 73°
2026-04-26 17:03 53.56264 7.61288 28287 ft 420 kts 73°
2026-04-26 17:03 53.56978 7.66052 27792 ft 417 kts 73°
2026-04-26 17:03 53.57674 7.70718 27315 ft 414 kts 73°
2026-04-26 17:04 53.58369 7.75402 26839 ft 411 kts 73°
2026-04-26 17:04 53.59058 7.80060 26388 ft 408 kts 73°
2026-04-26 17:04 53.59739 7.84676 25959 ft 404 kts 73°
2026-04-26 17:04 53.60413 7.89250 25512 ft 401 kts 73°
2026-04-26 17:05 53.61081 7.93789 25056 ft 399 kts 73°
2026-04-26 17:05 53.61747 7.98323 24610 ft 396 kts 73°
2026-04-26 17:05 53.62408 8.02831 24161 ft 393 kts 73°
2026-04-26 17:05 53.63048 8.07230 23693 ft 391 kts 73°
2026-04-26 17:06 53.63691 8.11667 23194 ft 388 kts 73°
2026-04-26 17:06 53.64328 8.16066 22715 ft 385 kts 73°
2026-04-26 17:06 53.64960 8.20433 22246 ft 382 kts 73°
2026-04-26 17:06 53.65591 8.24779 21794 ft 379 kts 73°
2026-04-26 17:07 53.66213 8.29081 21356 ft 376 kts 73°
2026-04-26 17:07 53.66619 8.31910 21068 ft 374 kts 73°
2026-04-26 17:07 53.67227 8.36168 20647 ft 372 kts 73°
2026-04-26 17:07 53.67827 8.40398 20217 ft 369 kts 73°
2026-04-26 17:08 53.68614 8.45965 19679 ft 366 kts 73°
2026-04-26 17:08 53.69011 8.48781 19412 ft 364 kts 73°
2026-04-26 17:08 53.69598 8.52929 19032 ft 362 kts 73°
2026-04-26 17:08 53.70175 8.57000 18652 ft 360 kts 73°
2026-04-26 17:09 53.70753 8.61103 18225 ft 357 kts 73°
2026-04-26 17:09 53.71137 8.63845 17945 ft 355 kts 73°
2026-04-26 17:09 53.71887 8.69202 17410 ft 352 kts 73°
2026-04-26 17:09 53.72449 8.73223 17016 ft 349 kts 73°
2026-04-26 17:10 53.72999 8.77154 16629 ft 346 kts 73°
2026-04-26 17:10 53.73549 8.81098 16246 ft 344 kts 73°
2026-04-26 17:10 53.74092 8.85022 15876 ft 341 kts 73°
2026-04-26 17:10 53.74629 8.88926 15511 ft 339 kts 73°
2026-04-26 17:11 53.75159 8.92793 15126 ft 338 kts 73°
2026-04-26 17:11 53.75688 8.96650 14752 ft 336 kts 73°
2026-04-26 17:11 53.76216 9.00491 14392 ft 334 kts 73°
2026-04-26 17:11 53.76740 9.04308 14028 ft 332 kts 73°
2026-04-26 17:12 53.77762 9.11814 13244 ft 327 kts 73°
2026-04-26 17:12 53.78270 9.15559 12857 ft 325 kts 73°
2026-04-26 17:13 53.79281 9.22953 12085 ft 320 kts 73°
2026-04-26 17:13 53.79786 9.26618 11710 ft 318 kts 73°
2026-04-26 17:13 53.80781 9.33852 10944 ft 313 kts 73°
2026-04-26 17:14 53.81265 9.37381 10664 ft 308 kts 73°
2026-04-26 17:14 53.82202 9.44276 10171 ft 296 kts 73°
2026-04-26 17:14 53.82661 9.47667 9791 ft 294 kts 73°
2026-04-26 17:15 53.83590 9.54367 9289 ft 291 kts 73°
2026-04-26 17:15 53.84057 9.57711 9297 ft 292 kts 73°
2026-04-26 17:15 53.84521 9.61017 9293 ft 292 kts 73°
2026-04-26 17:16 53.84989 9.64357 9175 ft 290 kts 73°
2026-04-26 17:16 53.85458 9.67684 8757 ft 289 kts 73°
2026-04-26 17:16 53.85928 9.70978 8364 ft 287 kts 73°
2026-04-26 17:16 53.86401 9.74257 7957 ft 286 kts 73°
2026-04-26 17:17 53.86880 9.77528 7559 ft 284 kts 73°
2026-04-26 17:17 53.87362 9.80766 7168 ft 283 kts 73°
2026-04-26 17:17 53.87850 9.83991 6766 ft 282 kts 73°
2026-04-26 17:17 53.88345 9.87199 6338 ft 280 kts 73°
2026-04-26 17:18 53.88850 9.90375 5918 ft 278 kts 73°
2026-04-26 17:18 53.89368 9.93554 5315 ft 283 kts 73°
2026-04-26 17:18 53.89682 9.96819 4965 ft 278 kts 94°
2026-04-26 17:18 53.89384 9.99979 4603 ft 273 kts 103°
2026-04-26 17:19 53.88434 10.06134 3986 ft 267 kts 117°
2026-04-26 17:19 53.87504 10.08854 3999 ft 268 kts 124°
2026-04-26 17:19 53.86498 10.11522 4000 ft 269 kts 124°
2026-04-26 17:20 53.85482 10.14193 4004 ft 269 kts 124°
2026-04-26 17:20 53.84809 10.15959 4005 ft 268 kts 124°
2026-04-26 17:20 53.83452 10.19513 4007 ft 268 kts 124°
2026-04-26 17:20 53.82445 10.22132 4002 ft 267 kts 124°
2026-04-26 17:21 53.81441 10.24758 3659 ft 265 kts 125°
2026-04-26 17:21 53.80212 10.27022 3218 ft 260 kts 149°
2026-04-26 17:21 53.78544 10.27836 2995 ft 240 kts 188°
2026-04-26 17:21 53.77102 10.26926 2998 ft 211 kts 219°
2026-04-26 17:22 53.76054 10.25274 3005 ft 206 kts 230°
2026-04-26 17:22 53.75156 10.23507 2996 ft 191 kts 232°
2026-04-26 17:22 53.74312 10.21783 3002 ft 189 kts 232°
2026-04-26 17:22 53.73472 10.20064 3007 ft 189 kts 232°
2026-04-26 17:23 53.72638 10.18360 2887 ft 184 kts 233°
2026-04-26 17:23 53.71851 10.16755 2644 ft 172 kts 233°
2026-04-26 17:23 53.71111 10.15246 2411 ft 161 kts 232°
2026-04-26 17:23 53.70417 10.13834 2197 ft 152 kts 237°
2026-04-26 17:24 53.69765 10.12504 2000 ft 143 kts 236°
2026-04-26 17:24 53.69133 10.11215 1802 ft 142 kts 236°
2026-04-26 17:24 53.68507 10.09941 1631 ft 138 kts 234°
2026-04-26 17:24 53.67894 10.08691 1407 ft 138 kts 236°
2026-04-26 17:25 53.67282 10.07445 1224 ft 139 kts 236°
2026-04-26 17:25 53.66667 10.06196 1037 ft 137 kts 234°
2026-04-26 17:25 53.66070 10.04983 856 ft 133 kts 233°
2026-04-26 17:25 53.65478 10.03780 678 ft 133 kts 236°
2026-04-26 17:26 53.64886 10.02580 516 ft 132 kts 237°
2026-04-26 17:26 53.64288 10.01364 293 ft 134 kts 238°
2026-04-26 17:26 53.63693 10.00164 134 ft 135 kts 235°
2026-04-26 17:26 53.63126 9.99003 54 ft 114 kts 231°
2026-04-26 17:27 53.62724 9.98193 54 ft 64 kts 229°
2026-04-26 17:27 53.62528 9.97803 51 ft 16 kts 216°
2026-04-26 17:27 53.62438 9.97833 51 ft 13 kts 126°
2026-04-26 17:27 53.62432 9.97963 51 ft 11 kts 78°
2026-04-26 17:28 53.62447 9.98082 51 ft 10 kts 78°
2026-04-26 17:28 53.62458 9.98191 51 ft 9 kts 80°
2026-04-26 17:28 53.62470 9.98303 51 ft 10 kts 79°
2026-04-26 17:28 53.62482 9.98408 51 ft 9 kts 79°
2026-04-26 17:29 53.62494 9.98513 49 ft 11 kts 78°
2026-04-26 17:29 53.62504 9.98593 51 ft 10 kts 78°
2026-04-26 17:29 53.62521 9.98742 51 ft 9 kts 79°
2026-04-26 17:29 53.62533 9.98845 51 ft 10 kts 79°
2026-04-26 17:30 53.62558 9.99085 51 ft 26 kts 78°
2026-04-26 17:30 53.62595 9.99392 50 ft 28 kts 79°
2026-04-26 17:30 53.62633 9.99710 52 ft 28 kts 78°
2026-04-26 17:30 53.62715 9.99870 51 ft 16 kts 34°
2026-04-26 17:31 53.62813 9.99973 52 ft 17 kts 32°
2026-04-26 17:31 53.62841 10.00005 52 ft 3 kts 36°
2026-04-26 17:31 53.62867 10.00036 51 ft 2 kts 33°
2026-04-26 17:31 53.62870 10.00040 51 ft 1 kts 33°
2026-04-26 17:32 53.62871 10.00041 51 ft 0 kts 33°
2026-04-26 17:33 53.62890 10.00066 50 ft 12 kts 37°
2026-04-26 17:34 53.62900 10.00182 50 ft 2 kts 122°
2026-04-26 17:34 53.62896 10.00194 51 ft 1 kts 123°
2026-04-26 17:34 53.62886 10.00220 49 ft 3 kts 122°
2026-04-26 17:34 53.62881 10.00233 51 ft 0 kts 122°